Year,Month,Day,Hour,Minute,Value (Times are PST for windspeed in km/hr)
2011,07,06,00,00,0.10
2011,07,06,00,01,0.00
2011,07,06,00,02,0.60
2011,07,06,00,03,0.90
2011,07,06,00,04,1.30
2011,07,06,00,05,0.10
2011,07,06,00,06,0.00
2011,07,06,00,07,0.10
2011,07,06,00,08,0.00
2011,07,06,00,09,0.60
2011,07,06,00,10,0.00
2011,07,06,00,11,0.30
2011,07,06,00,12,0.00
2011,07,06,00,13,0.60
2011,07,06,00,14,1.20
2011,07,06,00,15,1.10
2011,07,06,00,16,0.60
2011,07,06,00,17,2.20
2011,07,06,00,18,0.70
2011,07,06,00,19,0.00
2011,07,06,00,20,0.00
2011,07,06,00,21,0.00
2011,07,06,00,22,0.00
2011,07,06,00,23,0.60
2011,07,06,00,24,0.70
2011,07,06,00,25,0.10
2011,07,06,00,26,0.00
2011,07,06,00,27,0.00
2011,07,06,00,28,0.00
2011,07,06,00,29,0.00
2011,07,06,00,30,0.10
2011,07,06,00,31,0.00
2011,07,06,00,32,0.00
2011,07,06,00,33,0.10
2011,07,06,00,34,0.00
2011,07,06,00,35,0.00
2011,07,06,00,36,0.60
2011,07,06,00,37,0.00
2011,07,06,00,38,0.00
2011,07,06,00,39,0.50
2011,07,06,00,40,0.00
2011,07,06,00,41,0.00
2011,07,06,00,42,0.00
2011,07,06,00,43,0.00
2011,07,06,00,44,0.00
2011,07,06,00,45,0.00
2011,07,06,00,46,0.10
2011,07,06,00,47,0.20
2011,07,06,00,48,0.00
2011,07,06,00,49,0.00
2011,07,06,00,50,0.00
2011,07,06,00,51,0.00
2011,07,06,00,52,0.00
2011,07,06,00,53,0.00
2011,07,06,00,54,0.00
2011,07,06,00,55,0.00
2011,07,06,00,56,0.00
2011,07,06,00,57,0.00
2011,07,06,00,58,0.00
2011,07,06,00,59,0.10
2011,07,06,01,00,0.00
2011,07,06,01,01,0.20
2011,07,06,01,02,0.00
2011,07,06,01,03,0.00
2011,07,06,01,04,0.00
2011,07,06,01,05,0.00
2011,07,06,01,06,0.00
2011,07,06,01,07,0.00
2011,07,06,01,08,0.00
2011,07,06,01,09,0.00
2011,07,06,01,10,0.10
2011,07,06,01,11,0.20
2011,07,06,01,12,0.00
2011,07,06,01,13,0.00
2011,07,06,01,14,0.00
2011,07,06,01,15,0.00
2011,07,06,01,16,0.00
2011,07,06,01,17,0.00
2011,07,06,01,18,0.00
2011,07,06,01,19,0.00
2011,07,06,01,20,0.10
2011,07,06,01,21,0.00
2011,07,06,01,22,0.00
2011,07,06,01,23,0.00
2011,07,06,01,24,0.00
2011,07,06,01,25,0.00
2011,07,06,01,26,0.00
2011,07,06,01,27,0.00
2011,07,06,01,28,0.00
2011,07,06,01,29,0.00
2011,07,06,01,30,0.00
2011,07,06,01,31,0.00
2011,07,06,01,32,0.00
2011,07,06,01,33,0.00
2011,07,06,01,34,0.00
2011,07,06,01,35,0.00
2011,07,06,01,36,0.00
2011,07,06,01,37,0.00
2011,07,06,01,38,0.00
2011,07,06,01,39,0.00
2011,07,06,01,40,0.00
2011,07,06,01,41,0.00
2011,07,06,01,42,0.00
2011,07,06,01,43,0.00
2011,07,06,01,44,0.00
2011,07,06,01,45,0.00
2011,07,06,01,46,0.00
2011,07,06,01,47,0.00
2011,07,06,01,48,0.00
2011,07,06,01,49,0.00
2011,07,06,01,50,0.00
2011,07,06,01,51,0.00
2011,07,06,01,52,0.00
2011,07,06,01,53,0.00
2011,07,06,01,54,0.00
2011,07,06,01,55,0.00
2011,07,06,01,56,0.00
2011,07,06,01,57,0.00
2011,07,06,01,58,0.00
2011,07,06,01,59,0.00
2011,07,06,02,00,0.00
2011,07,06,02,01,0.10
2011,07,06,02,02,0.20
2011,07,06,02,03,0.70
2011,07,06,02,04,0.00
2011,07,06,02,05,0.10
2011,07,06,02,06,0.00
2011,07,06,02,07,0.10
2011,07,06,02,08,0.00
2011,07,06,02,09,0.00
2011,07,06,02,10,0.00
2011,07,06,02,11,0.00
2011,07,06,02,12,0.00
2011,07,06,02,13,0.00
2011,07,06,02,14,0.00
2011,07,06,02,15,0.00
2011,07,06,02,16,0.10
2011,07,06,02,17,0.00
2011,07,06,02,18,0.00
2011,07,06,02,19,0.00
2011,07,06,02,20,0.00
2011,07,06,02,21,0.00
2011,07,06,02,22,0.00
2011,07,06,02,23,0.00
2011,07,06,02,24,0.00
2011,07,06,02,25,0.00
2011,07,06,02,26,0.00
2011,07,06,02,27,0.00
2011,07,06,02,28,0.00
2011,07,06,02,29,0.00
2011,07,06,02,30,0.00
2011,07,06,02,31,0.00
2011,07,06,02,32,0.00
2011,07,06,02,33,0.00
2011,07,06,02,34,0.00
2011,07,06,02,35,0.00
2011,07,06,02,36,0.00
2011,07,06,02,37,0.00
2011,07,06,02,38,0.00
2011,07,06,02,39,0.00
2011,07,06,02,40,0.00
2011,07,06,02,41,0.00
2011,07,06,02,42,0.00
2011,07,06,02,43,0.00
2011,07,06,02,44,0.00
2011,07,06,02,45,0.00
2011,07,06,02,46,0.00
2011,07,06,02,47,0.00
2011,07,06,02,48,0.00
2011,07,06,02,49,0.00
2011,07,06,02,50,0.00
2011,07,06,02,51,0.00
2011,07,06,02,52,0.00
2011,07,06,02,53,0.00
2011,07,06,02,54,0.00
2011,07,06,02,55,0.00
2011,07,06,02,56,0.00
2011,07,06,02,57,0.00
2011,07,06,02,58,0.00
2011,07,06,02,59,0.00
2011,07,06,03,00,0.00
2011,07,06,03,01,0.00
2011,07,06,03,02,0.00
2011,07,06,03,03,0.00
2011,07,06,03,04,0.00
2011,07,06,03,05,0.00
2011,07,06,03,06,0.00
2011,07,06,03,07,0.00
2011,07,06,03,08,0.00
2011,07,06,03,09,0.00
2011,07,06,03,10,0.00
2011,07,06,03,11,0.00
2011,07,06,03,12,0.00
2011,07,06,03,13,0.00
2011,07,06,03,14,0.00
2011,07,06,03,15,0.00
2011,07,06,03,16,0.00
2011,07,06,03,17,0.00
2011,07,06,03,18,0.00
2011,07,06,03,19,0.00
2011,07,06,03,20,0.00
2011,07,06,03,21,0.00
2011,07,06,03,22,0.00
2011,07,06,03,23,0.00
2011,07,06,03,24,0.00
2011,07,06,03,25,0.00
2011,07,06,03,26,0.00
2011,07,06,03,27,0.00
2011,07,06,03,28,0.00
2011,07,06,03,29,0.50
2011,07,06,03,30,2.40
2011,07,06,03,31,0.60
2011,07,06,03,32,0.10
2011,07,06,03,33,0.00
2011,07,06,03,34,0.00
2011,07,06,03,35,0.10
2011,07,06,03,36,0.00
2011,07,06,03,37,0.00
2011,07,06,03,38,0.00
2011,07,06,03,39,0.00
2011,07,06,03,40,0.00
2011,07,06,03,41,0.00
2011,07,06,03,42,0.00
2011,07,06,03,43,0.00
2011,07,06,03,44,0.00
2011,07,06,03,45,0.00
2011,07,06,03,46,0.00
2011,07,06,03,47,0.00
2011,07,06,03,48,0.00
2011,07,06,03,49,0.00
2011,07,06,03,50,0.00
2011,07,06,03,51,0.00
2011,07,06,03,52,0.00
2011,07,06,03,53,0.00
2011,07,06,03,54,0.00
2011,07,06,03,55,0.00
2011,07,06,03,56,0.00
2011,07,06,03,57,0.00
2011,07,06,03,58,0.00
2011,07,06,03,59,0.00
2011,07,06,04,00,0.00
2011,07,06,04,01,0.00
2011,07,06,04,02,0.00
2011,07,06,04,03,0.00
2011,07,06,04,04,0.00
2011,07,06,04,05,0.00
2011,07,06,04,06,0.00
2011,07,06,04,07,0.00
2011,07,06,04,08,0.00
2011,07,06,04,09,0.00
2011,07,06,04,10,0.00
2011,07,06,04,11,0.00
2011,07,06,04,12,0.00
2011,07,06,04,13,0.00
2011,07,06,04,14,0.00
2011,07,06,04,15,0.00
2011,07,06,04,16,0.00
2011,07,06,04,17,0.00
2011,07,06,04,18,0.00
2011,07,06,04,19,0.00
2011,07,06,04,20,0.00
2011,07,06,04,21,0.00
2011,07,06,04,22,0.00
2011,07,06,04,23,0.00
2011,07,06,04,24,0.00
2011,07,06,04,25,0.00
2011,07,06,04,26,0.00
2011,07,06,04,27,0.00
2011,07,06,04,28,0.00
2011,07,06,04,29,0.00
2011,07,06,04,30,0.00
2011,07,06,04,31,0.00
2011,07,06,04,32,0.00
2011,07,06,04,33,0.00
2011,07,06,04,34,0.00
2011,07,06,04,35,0.00
2011,07,06,04,36,0.00
2011,07,06,04,37,0.00
2011,07,06,04,38,0.00
2011,07,06,04,39,0.00
2011,07,06,04,40,0.00
2011,07,06,04,41,0.00
2011,07,06,04,42,0.00
2011,07,06,04,43,0.00
2011,07,06,04,44,0.00
2011,07,06,04,45,0.00
2011,07,06,04,46,0.00
2011,07,06,04,47,0.00
2011,07,06,04,48,0.00
2011,07,06,04,49,0.00
2011,07,06,04,50,0.00
2011,07,06,04,51,0.00
2011,07,06,04,52,0.00
2011,07,06,04,53,0.00
2011,07,06,04,54,0.00
2011,07,06,04,55,0.00
2011,07,06,04,56,0.00
2011,07,06,04,57,0.00
2011,07,06,04,58,0.00
2011,07,06,04,59,0.00
2011,07,06,05,00,0.00
2011,07,06,05,01,0.00
2011,07,06,05,02,0.00
2011,07,06,05,03,0.00
2011,07,06,05,04,0.00
2011,07,06,05,05,0.00
2011,07,06,05,06,0.00
2011,07,06,05,07,0.00
2011,07,06,05,08,0.00
2011,07,06,05,09,0.00
2011,07,06,05,10,0.00
2011,07,06,05,11,0.00
2011,07,06,05,12,0.00
2011,07,06,05,13,0.00
2011,07,06,05,14,0.00
2011,07,06,05,15,0.00
2011,07,06,05,16,0.00
2011,07,06,05,17,0.00
2011,07,06,05,18,0.00
2011,07,06,05,19,0.00
2011,07,06,05,20,0.00
2011,07,06,05,21,0.00
2011,07,06,05,22,0.00
2011,07,06,05,23,0.00
2011,07,06,05,24,0.00
2011,07,06,05,25,0.00
2011,07,06,05,26,0.00
2011,07,06,05,27,0.00
2011,07,06,05,28,0.00
2011,07,06,05,29,0.00
2011,07,06,05,30,0.00
2011,07,06,05,31,0.00
2011,07,06,05,32,0.00
2011,07,06,05,33,0.00
2011,07,06,05,34,0.00
2011,07,06,05,35,0.00
2011,07,06,05,36,0.00
2011,07,06,05,37,0.00
2011,07,06,05,38,0.00
2011,07,06,05,39,0.00
2011,07,06,05,40,0.00
2011,07,06,05,41,0.00
2011,07,06,05,42,0.00
2011,07,06,05,43,0.00
2011,07,06,05,44,0.00
2011,07,06,05,45,0.00
2011,07,06,05,46,0.00
2011,07,06,05,47,0.00
2011,07,06,05,48,0.00
2011,07,06,05,49,0.00
2011,07,06,05,50,0.00
2011,07,06,05,51,0.00
2011,07,06,05,52,0.00
2011,07,06,05,53,0.00
2011,07,06,05,54,0.00
2011,07,06,05,55,0.00
2011,07,06,05,56,0.00
2011,07,06,05,57,0.00
2011,07,06,05,58,0.00
2011,07,06,05,59,0.00
2011,07,06,06,00,0.00
2011,07,06,06,01,0.00
2011,07,06,06,02,0.00
2011,07,06,06,03,0.00
2011,07,06,06,04,0.00
2011,07,06,06,05,0.00
2011,07,06,06,06,0.00
2011,07,06,06,07,0.00
2011,07,06,06,08,0.00
2011,07,06,06,09,0.00
2011,07,06,06,10,0.00
2011,07,06,06,11,0.00
2011,07,06,06,12,0.00
2011,07,06,06,13,0.00
2011,07,06,06,14,0.00
2011,07,06,06,15,0.00
2011,07,06,06,16,0.00
2011,07,06,06,17,0.00
2011,07,06,06,18,0.00
2011,07,06,06,19,0.00
2011,07,06,06,20,0.00
2011,07,06,06,21,0.00
2011,07,06,06,22,0.00
2011,07,06,06,23,0.00
2011,07,06,06,24,0.00
2011,07,06,06,25,0.00
2011,07,06,06,26,0.00
2011,07,06,06,27,0.00
2011,07,06,06,28,0.00
2011,07,06,06,29,0.00
2011,07,06,06,30,0.00
2011,07,06,06,31,0.00
2011,07,06,06,32,0.00
2011,07,06,06,33,0.00
2011,07,06,06,34,0.00
2011,07,06,06,35,0.00
2011,07,06,06,36,0.00
2011,07,06,06,37,0.00
2011,07,06,06,38,0.00
2011,07,06,06,39,0.00
2011,07,06,06,40,0.00
2011,07,06,06,41,0.00
2011,07,06,06,42,0.00
2011,07,06,06,43,0.00
2011,07,06,06,44,0.00
2011,07,06,06,45,0.00
2011,07,06,06,46,0.00
2011,07,06,06,47,0.00
2011,07,06,06,48,0.00
2011,07,06,06,49,0.00
2011,07,06,06,50,0.00
2011,07,06,06,51,0.00
2011,07,06,06,52,0.00
2011,07,06,06,53,0.00
2011,07,06,06,54,0.00
2011,07,06,06,55,0.00
2011,07,06,06,56,0.00
2011,07,06,06,57,0.00
2011,07,06,06,58,0.00
2011,07,06,06,59,0.00
2011,07,06,07,00,0.00
2011,07,06,07,01,0.00
2011,07,06,07,02,0.00
2011,07,06,07,03,0.00
2011,07,06,07,04,0.00
2011,07,06,07,05,0.00
2011,07,06,07,06,0.00
2011,07,06,07,07,0.00
2011,07,06,07,08,0.00
2011,07,06,07,09,0.00
2011,07,06,07,10,0.00
2011,07,06,07,11,0.00
2011,07,06,07,12,0.00
2011,07,06,07,13,0.00
2011,07,06,07,14,0.00
2011,07,06,07,15,0.00
2011,07,06,07,16,0.00
2011,07,06,07,17,0.00
2011,07,06,07,18,0.20
2011,07,06,07,19,0.00
2011,07,06,07,20,0.00
2011,07,06,07,21,0.00
2011,07,06,07,22,0.00
2011,07,06,07,23,0.10
2011,07,06,07,24,0.00
2011,07,06,07,25,0.00
2011,07,06,07,26,0.00
2011,07,06,07,27,0.00
2011,07,06,07,28,0.00
2011,07,06,07,29,0.00
2011,07,06,07,30,0.00
2011,07,06,07,31,0.00
2011,07,06,07,32,0.00
2011,07,06,07,33,0.10
2011,07,06,07,34,0.00
2011,07,06,07,35,0.40
2011,07,06,07,36,0.20
2011,07,06,07,37,0.00
2011,07,06,07,38,0.00
2011,07,06,07,39,0.10
2011,07,06,07,40,0.10
2011,07,06,07,41,0.10
2011,07,06,07,42,0.20
2011,07,06,07,43,0.20
2011,07,06,07,44,0.10
2011,07,06,07,45,0.10
2011,07,06,07,46,0.10
2011,07,06,07,47,0.10
2011,07,06,07,48,0.00
2011,07,06,07,49,0.00
2011,07,06,07,50,0.30
2011,07,06,07,51,1.90
2011,07,06,07,52,1.90
2011,07,06,07,53,0.20
2011,07,06,07,54,0.00
2011,07,06,07,55,0.00
2011,07,06,07,56,0.10
2011,07,06,07,57,2.50
2011,07,06,07,58,0.50
2011,07,06,07,59,0.10
2011,07,06,08,00,0.00
2011,07,06,08,01,0.00
2011,07,06,08,02,0.10
2011,07,06,08,03,0.00
2011,07,06,08,04,0.20
2011,07,06,08,05,0.00
2011,07,06,08,06,0.10
2011,07,06,08,07,0.10
2011,07,06,08,08,0.00
2011,07,06,08,09,0.10
2011,07,06,08,10,0.10
2011,07,06,08,11,0.00
2011,07,06,08,12,0.10
2011,07,06,08,13,0.00
2011,07,06,08,14,0.10
2011,07,06,08,15,0.00
2011,07,06,08,16,0.00
2011,07,06,08,17,0.00
2011,07,06,08,18,0.10
2011,07,06,08,19,0.10
2011,07,06,08,20,0.00
2011,07,06,08,21,0.10
2011,07,06,08,22,0.00
2011,07,06,08,23,0.10
2011,07,06,08,24,0.00
2011,07,06,08,25,0.10
2011,07,06,08,26,0.10
2011,07,06,08,27,0.00
2011,07,06,08,28,0.10
2011,07,06,08,29,0.40
2011,07,06,08,30,0.20
2011,07,06,08,31,0.10
2011,07,06,08,32,0.10
2011,07,06,08,33,0.00
2011,07,06,08,34,0.10
2011,07,06,08,35,0.20
2011,07,06,08,36,0.00
2011,07,06,08,37,0.00
2011,07,06,08,38,0.10
2011,07,06,08,39,0.00
2011,07,06,08,40,2.10
2011,07,06,08,41,0.10
2011,07,06,08,42,1.00
2011,07,06,08,43,0.50
2011,07,06,08,44,2.30
2011,07,06,08,45,1.80
2011,07,06,08,46,0.20
2011,07,06,08,47,1.40
2011,07,06,08,48,3.20
2011,07,06,08,49,1.80
2011,07,06,08,50,0.20
2011,07,06,08,51,2.70
2011,07,06,08,52,3.10
2011,07,06,08,53,2.50
2011,07,06,08,54,2.90
2011,07,06,08,55,0.80
2011,07,06,08,56,1.90
2011,07,06,08,57,2.40
2011,07,06,08,58,3.60
2011,07,06,08,59,2.70
2011,07,06,09,00,3.60
2011,07,06,09,01,0.80
2011,07,06,09,02,0.70
2011,07,06,09,03,0.40
2011,07,06,09,04,0.40
2011,07,06,09,05,3.90
2011,07,06,09,06,2.50
2011,07,06,09,07,3.40
2011,07,06,09,08,2.00
2011,07,06,09,09,2.50
2011,07,06,09,10,0.30
2011,07,06,09,11,0.80
2011,07,06,09,12,0.80
2011,07,06,09,13,0.30
2011,07,06,09,14,2.40
2011,07,06,09,15,3.50
2011,07,06,09,16,1.20
2011,07,06,09,17,1.40
2011,07,06,09,18,1.50
2011,07,06,09,19,0.50
2011,07,06,09,20,0.20
2011,07,06,09,21,3.10
2011,07,06,09,22,0.60
2011,07,06,09,23,1.70
2011,07,06,09,24,0.30
2011,07,06,09,25,1.50
2011,07,06,09,26,0.50
2011,07,06,09,27,0.50
2011,07,06,09,28,0.80
2011,07,06,09,29,0.10
2011,07,06,09,30,1.40
2011,07,06,09,31,1.30
2011,07,06,09,32,2.20
2011,07,06,09,33,0.30
2011,07,06,09,34,2.00
2011,07,06,09,35,3.10
2011,07,06,09,36,0.10
2011,07,06,09,37,0.60
2011,07,06,09,38,1.90
2011,07,06,09,39,1.60
2011,07,06,09,40,0.30
2011,07,06,09,41,1.00
2011,07,06,09,42,0.50
2011,07,06,09,43,0.40
2011,07,06,09,44,0.70
2011,07,06,09,45,4.20
2011,07,06,09,46,1.30
2011,07,06,09,47,6.20
2011,07,06,09,48,5.10
2011,07,06,09,49,4.30
2011,07,06,09,50,5.60
2011,07,06,09,51,1.40
2011,07,06,09,52,2.60
2011,07,06,09,53,2.50
2011,07,06,09,54,6.40
2011,07,06,09,55,4.50
2011,07,06,09,56,1.50
2011,07,06,09,57,0.90
2011,07,06,09,58,2.90
2011,07,06,09,59,1.80
2011,07,06,10,00,2.00
2011,07,06,10,01,4.10
2011,07,06,10,02,1.80
2011,07,06,10,03,1.10
2011,07,06,10,04,6.30
2011,07,06,10,05,4.80
2011,07,06,10,06,1.80
2011,07,06,10,07,7.00
2011,07,06,10,08,5.60
2011,07,06,10,09,5.30
2011,07,06,10,10,7.50
2011,07,06,10,11,4.10
2011,07,06,10,12,5.50
2011,07,06,10,13,4.50
2011,07,06,10,14,1.30
2011,07,06,10,15,1.50
2011,07,06,10,16,3.60
2011,07,06,10,17,3.90
2011,07,06,10,18,3.40
2011,07,06,10,19,2.30
2011,07,06,10,20,4.70
2011,07,06,10,21,8.90
2011,07,06,10,22,7.10
2011,07,06,10,23,6.40
2011,07,06,10,24,5.40
2011,07,06,10,25,6.50
2011,07,06,10,26,3.50
2011,07,06,10,27,3.10
2011,07,06,10,28,1.60
2011,07,06,10,29,0.50
2011,07,06,10,30,1.00
2011,07,06,10,31,1.50
2011,07,06,10,32,0.10
2011,07,06,10,33,3.40
2011,07,06,10,34,5.30
2011,07,06,10,35,5.60
2011,07,06,10,36,2.80
2011,07,06,10,37,2.60
2011,07,06,10,38,0.50
2011,07,06,10,39,3.30
2011,07,06,10,40,3.00
2011,07,06,10,41,1.40
2011,07,06,10,42,0.60
2011,07,06,10,43,1.20
2011,07,06,10,44,0.30
2011,07,06,10,45,2.50
2011,07,06,10,46,3.40
2011,07,06,10,47,2.90
2011,07,06,10,48,5.50
2011,07,06,10,49,3.90
2011,07,06,10,50,3.10
2011,07,06,10,51,5.80
2011,07,06,10,52,6.50
2011,07,06,10,53,13.60
2011,07,06,10,54,14.20
2011,07,06,10,55,10.70
2011,07,06,10,56,4.00
2011,07,06,10,57,3.70
2011,07,06,10,58,1.90
2011,07,06,10,59,3.80
2011,07,06,11,00,10.30
2011,07,06,11,01,5.10
2011,07,06,11,02,5.30
2011,07,06,11,03,4.60
2011,07,06,11,04,3.30
2011,07,06,11,05,5.40
2011,07,06,11,06,2.70
2011,07,06,11,07,10.90
2011,07,06,11,08,13.20
2011,07,06,11,09,7.10
2011,07,06,11,10,9.50
2011,07,06,11,11,5.30
2011,07,06,11,12,7.60
2011,07,06,11,13,8.20
2011,07,06,11,14,8.90
2011,07,06,11,15,6.00
2011,07,06,11,16,6.10
2011,07,06,11,17,6.40
2011,07,06,11,18,4.60
2011,07,06,11,19,5.00
2011,07,06,11,20,7.50
2011,07,06,11,21,11.70
2011,07,06,11,22,5.40
2011,07,06,11,23,11.90
2011,07,06,11,24,10.20
2011,07,06,11,25,7.70
2011,07,06,11,26,2.10
2011,07,06,11,27,5.60
2011,07,06,11,28,7.80
2011,07,06,11,29,12.10
2011,07,06,11,30,9.20
2011,07,06,11,31,3.10
2011,07,06,11,32,3.40
2011,07,06,11,33,7.60
2011,07,06,11,34,7.00
2011,07,06,11,35,6.40
2011,07,06,11,36,5.60
2011,07,06,11,37,10.80
2011,07,06,11,38,7.30
2011,07,06,11,39,5.40
2011,07,06,11,40,6.60
2011,07,06,11,41,3.60
2011,07,06,11,42,6.00
2011,07,06,11,43,4.50
2011,07,06,11,44,6.10
2011,07,06,11,45,4.30
2011,07,06,11,46,6.20
2011,07,06,11,47,2.70
2011,07,06,11,48,4.80
2011,07,06,11,49,8.60
2011,07,06,11,50,6.30
2011,07,06,11,51,14.70
2011,07,06,11,52,8.10
2011,07,06,11,53,7.00
2011,07,06,11,54,12.10
2011,07,06,11,55,11.70
2011,07,06,11,56,6.20
2011,07,06,11,57,4.80
2011,07,06,11,58,9.30
2011,07,06,11,59,13.40
2011,07,06,12,00,12.20
2011,07,06,12,01,12.90
2011,07,06,12,02,13.00
2011,07,06,12,03,12.10
2011,07,06,12,04,11.40
2011,07,06,12,05,9.10
2011,07,06,12,06,4.70
2011,07,06,12,07,8.70
2011,07,06,12,08,9.40
2011,07,06,12,09,5.00
2011,07,06,12,10,4.70
2011,07,06,12,11,2.70
2011,07,06,12,12,5.90
2011,07,06,12,13,7.40
2011,07,06,12,14,4.30
2011,07,06,12,15,4.50
2011,07,06,12,16,4.30
2011,07,06,12,17,8.60
2011,07,06,12,18,3.50
2011,07,06,12,19,6.40
2011,07,06,12,20,5.70
2011,07,06,12,21,4.60
2011,07,06,12,22,5.40
2011,07,06,12,23,3.90
2011,07,06,12,24,3.90
2011,07,06,12,25,4.20
2011,07,06,12,26,2.90
2011,07,06,12,27,3.50
2011,07,06,12,28,4.60
2011,07,06,12,29,2.40
2011,07,06,12,30,2.50
2011,07,06,12,31,2.80
2011,07,06,12,32,0.60
2011,07,06,12,33,5.00
2011,07,06,12,34,8.40
2011,07,06,12,35,8.40
2011,07,06,12,36,12.70
2011,07,06,12,37,8.70
2011,07,06,12,38,5.00
2011,07,06,12,39,4.90
2011,07,06,12,40,4.30
2011,07,06,12,41,4.70
2011,07,06,12,42,3.50
2011,07,06,12,43,2.40
2011,07,06,12,44,0.70
2011,07,06,12,45,2.30
2011,07,06,12,46,4.70
2011,07,06,12,47,10.00
2011,07,06,12,48,6.60
2011,07,06,12,49,4.30
2011,07,06,12,50,2.70
2011,07,06,12,51,1.70
2011,07,06,12,52,6.10
2011,07,06,12,53,11.80
2011,07,06,12,54,12.60
2011,07,06,12,55,11.80
2011,07,06,12,56,10.40
2011,07,06,12,57,7.20
2011,07,06,12,58,11.70
2011,07,06,12,59,9.50
2011,07,06,13,00,5.10
2011,07,06,13,01,9.00
2011,07,06,13,02,10.10
2011,07,06,13,03,9.70
2011,07,06,13,04,11.30
2011,07,06,13,05,9.70
2011,07,06,13,06,7.10
2011,07,06,13,07,14.10
2011,07,06,13,08,10.10
2011,07,06,13,09,9.60
2011,07,06,13,10,6.70
2011,07,06,13,11,10.90
2011,07,06,13,12,9.50
2011,07,06,13,13,8.10
2011,07,06,13,14,4.30
2011,07,06,13,15,12.80
2011,07,06,13,16,10.10
2011,07,06,13,17,16.30
2011,07,06,13,18,14.40
2011,07,06,13,19,11.10
2011,07,06,13,20,10.00
2011,07,06,13,21,10.70
2011,07,06,13,22,6.00
2011,07,06,13,23,5.90
2011,07,06,13,24,13.50
2011,07,06,13,25,8.90
2011,07,06,13,26,10.10
2011,07,06,13,27,11.70
2011,07,06,13,28,7.80
2011,07,06,13,29,5.60
2011,07,06,13,30,7.70
2011,07,06,13,31,8.90
2011,07,06,13,32,10.20
2011,07,06,13,33,9.00
2011,07,06,13,34,6.90
2011,07,06,13,35,7.80
2011,07,06,13,36,9.40
2011,07,06,13,37,7.80
2011,07,06,13,38,10.50
2011,07,06,13,39,10.20
2011,07,06,13,40,10.10
2011,07,06,13,41,7.30
2011,07,06,13,42,6.60
2011,07,06,13,43,10.70
2011,07,06,13,44,8.40
2011,07,06,13,45,6.40
2011,07,06,13,46,9.10
2011,07,06,13,47,14.30
2011,07,06,13,48,12.90
2011,07,06,13,49,10.40
2011,07,06,13,50,9.20
2011,07,06,13,51,10.40
2011,07,06,13,52,16.70
2011,07,06,13,53,9.50
2011,07,06,13,54,7.60
2011,07,06,13,55,13.20
2011,07,06,13,56,15.70
2011,07,06,13,57,5.30
2011,07,06,13,58,5.60
2011,07,06,13,59,7.30
2011,07,06,14,00,5.00
2011,07,06,14,01,6.20
2011,07,06,14,02,6.60
2011,07,06,14,03,14.40
2011,07,06,14,04,12.70
2011,07,06,14,05,8.10
2011,07,06,14,06,6.10
2011,07,06,14,07,5.60
2011,07,06,14,08,3.50
2011,07,06,14,09,3.90
2011,07,06,14,10,6.70
2011,07,06,14,11,8.30
2011,07,06,14,12,11.80
2011,07,06,14,13,10.00
2011,07,06,14,14,9.80
2011,07,06,14,15,10.40
2011,07,06,14,16,11.80
2011,07,06,14,17,14.90
2011,07,06,14,18,15.00
2011,07,06,14,19,15.40
2011,07,06,14,20,13.70
2011,07,06,14,21,11.40
2011,07,06,14,22,14.00
2011,07,06,14,23,15.00
2011,07,06,14,24,16.00
2011,07,06,14,25,13.80
2011,07,06,14,26,11.40
2011,07,06,14,27,7.60
2011,07,06,14,28,9.30
2011,07,06,14,29,8.00
2011,07,06,14,30,4.30
2011,07,06,14,31,4.90
2011,07,06,14,32,6.00
2011,07,06,14,33,5.80
2011,07,06,14,34,6.10
2011,07,06,14,35,3.80
2011,07,06,14,36,5.10
2011,07,06,14,37,7.50
2011,07,06,14,38,11.10
2011,07,06,14,39,7.70
2011,07,06,14,40,6.00
2011,07,06,14,41,9.50
2011,07,06,14,42,13.30
2011,07,06,14,43,13.70
2011,07,06,14,44,12.80
2011,07,06,14,45,17.70
2011,07,06,14,46,9.30
2011,07,06,14,47,9.70
2011,07,06,14,48,14.10
2011,07,06,14,49,15.20
2011,07,06,14,50,18.30
2011,07,06,14,51,19.80
2011,07,06,14,52,17.00
2011,07,06,14,53,17.90
2011,07,06,14,54,18.00
2011,07,06,14,55,18.10
2011,07,06,14,56,17.40
2011,07,06,14,57,14.20
2011,07,06,14,58,12.50
2011,07,06,14,59,14.00
2011,07,06,15,00,13.40
2011,07,06,15,01,13.00
2011,07,06,15,02,14.60
2011,07,06,15,03,12.30
2011,07,06,15,04,15.20
2011,07,06,15,05,11.10
2011,07,06,15,06,11.70
2011,07,06,15,07,17.10
2011,07,06,15,08,14.30
2011,07,06,15,09,8.50
2011,07,06,15,10,5.80
2011,07,06,15,11,5.80
2011,07,06,15,12,5.50
2011,07,06,15,13,4.70
2011,07,06,15,14,6.00
2011,07,06,15,15,6.40
2011,07,06,15,16,8.50
2011,07,06,15,17,12.90
2011,07,06,15,18,7.30
2011,07,06,15,19,6.10
2011,07,06,15,20,13.20
2011,07,06,15,21,16.50
2011,07,06,15,22,12.20
2011,07,06,15,23,9.10
2011,07,06,15,24,15.10
2011,07,06,15,25,16.30
2011,07,06,15,26,16.10
2011,07,06,15,27,16.60
2011,07,06,15,28,18.30
2011,07,06,15,29,10.60
2011,07,06,15,30,12.40
2011,07,06,15,31,6.40
2011,07,06,15,32,7.00
2011,07,06,15,33,16.00
2011,07,06,15,34,14.60
2011,07,06,15,35,18.00
2011,07,06,15,36,13.90
2011,07,06,15,37,7.80
2011,07,06,15,38,10.90
2011,07,06,15,39,16.90
2011,07,06,15,40,9.60
2011,07,06,15,41,13.60
2011,07,06,15,42,12.20
2011,07,06,15,43,7.90
2011,07,06,15,44,7.30
2011,07,06,15,45,5.60
2011,07,06,15,46,6.00
2011,07,06,15,47,6.10
2011,07,06,15,48,6.70
2011,07,06,15,49,12.00
2011,07,06,15,50,3.80
2011,07,06,15,51,5.70
2011,07,06,15,52,3.00
2011,07,06,15,53,5.10
2011,07,06,15,54,5.60
2011,07,06,15,55,4.90
2011,07,06,15,56,13.10
2011,07,06,15,57,11.30
2011,07,06,15,58,6.20
2011,07,06,15,59,6.60
2011,07,06,16,00,6.10
2011,07,06,16,01,5.40
2011,07,06,16,02,6.80
2011,07,06,16,03,11.20
2011,07,06,16,04,5.80
2011,07,06,16,05,10.30
2011,07,06,16,06,14.90
2011,07,06,16,07,11.30
2011,07,06,16,08,14.20
2011,07,06,16,09,7.70
2011,07,06,16,10,5.60
2011,07,06,16,11,4.90
2011,07,06,16,12,3.70
2011,07,06,16,13,6.30
2011,07,06,16,14,5.10
2011,07,06,16,15,7.20
2011,07,06,16,16,11.60
2011,07,06,16,17,9.40
2011,07,06,16,18,3.50
2011,07,06,16,19,6.00
2011,07,06,16,20,8.80
2011,07,06,16,21,7.40
2011,07,06,16,22,5.90
2011,07,06,16,23,5.00
2011,07,06,16,24,10.30
2011,07,06,16,25,11.90
2011,07,06,16,26,10.80
2011,07,06,16,27,14.60
2011,07,06,16,28,12.60
2011,07,06,16,29,11.90
2011,07,06,16,30,7.10
2011,07,06,16,31,6.60
2011,07,06,16,32,12.20
2011,07,06,16,33,12.50
2011,07,06,16,34,11.40
2011,07,06,16,35,10.30
2011,07,06,16,36,12.40
2011,07,06,16,37,10.50
2011,07,06,16,38,9.10
2011,07,06,16,39,11.40
2011,07,06,16,40,7.40
2011,07,06,16,41,5.80
2011,07,06,16,42,6.80
2011,07,06,16,43,8.50
2011,07,06,16,44,6.40
2011,07,06,16,45,4.80
2011,07,06,16,46,3.90
2011,07,06,16,47,4.70
2011,07,06,16,48,4.70
2011,07,06,16,49,9.40
2011,07,06,16,50,4.70
2011,07,06,16,51,5.00
2011,07,06,16,52,6.20
2011,07,06,16,53,2.80
2011,07,06,16,54,3.00
2011,07,06,16,55,4.60
2011,07,06,16,56,7.60
2011,07,06,16,57,6.30
2011,07,06,16,58,8.00
2011,07,06,16,59,3.20
2011,07,06,17,00,4.00
2011,07,06,17,01,1.90
2011,07,06,17,02,1.90
2011,07,06,17,03,1.40
2011,07,06,17,04,3.30
2011,07,06,17,05,5.80
2011,07,06,17,06,5.10
2011,07,06,17,07,8.60
2011,07,06,17,08,6.40
2011,07,06,17,09,5.20
2011,07,06,17,10,1.70
2011,07,06,17,11,3.40
2011,07,06,17,12,4.00
2011,07,06,17,13,2.30
2011,07,06,17,14,3.60
2011,07,06,17,15,2.00
2011,07,06,17,16,3.20
2011,07,06,17,17,0.30
2011,07,06,17,18,0.10
2011,07,06,17,19,3.20
2011,07,06,17,20,6.10
2011,07,06,17,21,1.90
2011,07,06,17,22,0.10
2011,07,06,17,23,5.60
2011,07,06,17,24,5.60
2011,07,06,17,25,1.50
2011,07,06,17,26,0.10
2011,07,06,17,27,1.90
2011,07,06,17,28,4.70
2011,07,06,17,29,6.00
2011,07,06,17,30,9.30
2011,07,06,17,31,9.40
2011,07,06,17,32,8.20
2011,07,06,17,33,8.80
2011,07,06,17,34,5.90
2011,07,06,17,35,6.50
2011,07,06,17,36,6.80
2011,07,06,17,37,8.50
2011,07,06,17,38,7.00
2011,07,06,17,39,5.20
2011,07,06,17,40,7.00
2011,07,06,17,41,5.20
2011,07,06,17,42,4.70
2011,07,06,17,43,5.90
2011,07,06,17,44,4.90
2011,07,06,17,45,6.70
2011,07,06,17,46,4.50
2011,07,06,17,47,1.50
2011,07,06,17,48,1.80
2011,07,06,17,49,4.30
2011,07,06,17,50,0.60
2011,07,06,17,51,5.90
2011,07,06,17,52,5.20
2011,07,06,17,53,3.30
2011,07,06,17,54,2.70
2011,07,06,17,55,1.90
2011,07,06,17,56,2.10
2011,07,06,17,57,6.80
2011,07,06,17,58,6.40
2011,07,06,17,59,7.90
2011,07,06,18,00,5.10